Meteo pe oră la Bolshie Yakovichi

Astăzi, 6 Mai, Joi

Timp Temperatura Precipitaţii Vânt Presiune Umiditate
00:00 +7°C° 0.1 mm 3 m/s 736 mmHg 94%
01:00 +6°C° 0.1 mm 4 m/s 736 mmHg 92%
02:00 +6°C° 0 mm 5 m/s 736 mmHg 88%
03:00 +6°C° 0.3 mm 5 m/s 736 mmHg 88%
04:00 +5°C° 0.3 mm 5 m/s 737 mmHg 89%
05:00 +5°C° 0.3 mm 5 m/s 737 mmHg 89%
06:00 +4°C° 0 mm 6 m/s 738 mmHg 88%
07:00 +4°C° 0 mm 6 m/s 738 mmHg 86%
08:00 +4°C° 0 mm 7 m/s 739 mmHg 84%
09:00 +5°C° 0.1 mm 7 m/s 739 mmHg 74%
10:00 +6°C° 0.1 mm 8 m/s 740 mmHg 64%
11:00 +7°C° 0.1 mm 8 m/s 740 mmHg 54%
12:00 +9°C° 0 mm 8 m/s 740 mmHg 50%
13:00 +10°C° 0 mm 8 m/s 740 mmHg 46%
14:00 +11°C° 0 mm 9 m/s 741 mmHg 41%
15:00 +11°C° 0 mm 8 m/s 741 mmHg 43%
16:00 +11°C° 0 mm 7 m/s 741 mmHg 45%
17:00 +11°C° 0 mm 6 m/s 741 mmHg 47%
18:00 +9°C° 0 mm 5 m/s 741 mmHg 52%
19:00 +8°C° 0 mm 4 m/s 741 mmHg 57%
20:00 +7°C° 0 mm 4 m/s 741 mmHg 62%
21:00 +6°C° 0 mm 4 m/s 741 mmHg 65%
22:00 +6°C° 0 mm 4 m/s 741 mmHg 68%
23:00 +6°C° 0 mm 4 m/s 741 mmHg 71%

Mâine, 7 Mai, Vineri

Timp Temperatura Precipitaţii Vânt Presiune Umiditate
00:00 +5°C° 0 mm 4 m/s 741 mmHg 78%
01:00 +5°C° 0 mm 4 m/s 741 mmHg 84%
02:00 +4°C° 0 mm 3 m/s 741 mmHg 91%
03:00 +4°C° 0 mm 3 m/s 741 mmHg 92%
04:00 +4°C° 0 mm 3 m/s 741 mmHg 93%
05:00 +4°C° 0 mm 2 m/s 740 mmHg 94%
06:00 +5°C° 0.1 mm 2 m/s 740 mmHg 91%
07:00 +5°C° 0.1 mm 3 m/s 740 mmHg 89%
08:00 +7°C° 0.1 mm 3 m/s 740 mmHg 86%
09:00 +8°C° 0.3 mm 3 m/s 740 mmHg 86%
10:00 +7°C° 0.3 mm 4 m/s 739 mmHg 86%
11:00 +7°C° 0.3 mm 4 m/s 739 mmHg 87%
12:00 +7°C° 0.4 mm 4 m/s 738 mmHg 88%
13:00 +7°C° 0.4 mm 4 m/s 738 mmHg 90%
14:00 +7°C° 0.4 mm 4 m/s 737 mmHg 92%
15:00 +7°C° 0.2 mm 4 m/s 737 mmHg 91%
16:00 +8°C° 0.2 mm 4 m/s 737 mmHg 89%
17:00 +8°C° 0.2 mm 4 m/s 737 mmHg 88%
18:00 +8°C° 0.3 mm 4 m/s 737 mmHg 88%
19:00 +7°C° 0.3 mm 4 m/s 737 mmHg 89%
20:00 +7°C° 0.3 mm 4 m/s 737 mmHg 90%
21:00 +6°C° 0 mm 5 m/s 737 mmHg 91%
22:00 +5°C° 0 mm 5 m/s 738 mmHg 92%
23:00 +3°C° 0 mm 6 m/s 738 mmHg 93%

Poimâine, 8 Mai, Sâmbătă

Timp Temperatura Precipitaţii Vânt Presiune Umiditate
00:00 +2°C° 0.5 mm 7 m/s 739 mmHg 94%
01:00 +2°C° 0.5 mm 7 m/s 739 mmHg 94%
02:00 0°C° 0.5 mm 8 m/s 740 mmHg 94%
03:00 0°C° 0.1 mm 8 m/s 741 mmHg 92%
04:00 0°C° 0.1 mm 8 m/s 741 mmHg 90%
05:00 0°C° 0.1 mm 8 m/s 742 mmHg 88%
06:00 0°C° 0 mm 7 m/s 743 mmHg 87%
07:00 +2°C° 0 mm 7 m/s 743 mmHg 86%
08:00 +2°C° 0 mm 7 m/s 744 mmHg 85%
09:00 +3°C° 0 mm 7 m/s 745 mmHg 77%
10:00 +4°C° 0 mm 7 m/s 745 mmHg 68%
11:00 +5°C° 0 mm 7 m/s 746 mmHg 59%
12:00 +6°C° 0 mm 7 m/s 746 mmHg 59%
13:00 +6°C° 0 mm 7 m/s 746 mmHg 58%
14:00 +8°C° 0 mm 7 m/s 746 mmHg 57%
15:00 +8°C° 0.1 mm 6 m/s 747 mmHg 59%
16:00 +8°C° 0.1 mm 6 m/s 747 mmHg 60%
17:00 +9°C° 0.1 mm 6 m/s 747 mmHg 62%
18:00 +7°C° 0.2 mm 5 m/s 747 mmHg 70%
19:00 +6°C° 0.2 mm 4 m/s 747 mmHg 78%
20:00 +4°C° 0.2 mm 3 m/s 748 mmHg 86%
21:00 +3°C° 0 mm 3 m/s 748 mmHg 88%
22:00 +3°C° 0 mm 3 m/s 748 mmHg 90%
23:00 +2°C° 0 mm 3 m/s 749 mmHg 92%

9 Mai, Duminică

Timp Temperatura Precipitaţii Vânt Presiune Umiditate
00:00 +3°C° 0 mm 2 m/s 749 mmHg 93%
01:00 +3°C° 0 mm 2 m/s 750 mmHg 93%
02:00 +2°C° 0 mm 2 m/s 750 mmHg 94%
03:00 +2°C° 0 mm 2 m/s 750 mmHg 94%
04:00 +2°C° 0 mm 2 m/s 751 mmHg 94%
05:00 +2°C° 0 mm 2 m/s 751 mmHg 94%
06:00 +3°C° 0 mm 2 m/s 751 mmHg 88%
07:00 +5°C° 0 mm 2 m/s 752 mmHg 81%
08:00 +7°C° 0 mm 2 m/s 752 mmHg 75%
09:00 +9°C° 0 mm 2 m/s 752 mmHg 65%
10:00 +10°C° 0 mm 2 m/s 752 mmHg 55%
11:00 +12°C° 0 mm 3 m/s 752 mmHg 46%
12:00 +13°C° 0 mm 3 m/s 752 mmHg 44%
13:00 +13°C° 0 mm 3 m/s 751 mmHg 43%
14:00 +14°C° 0 mm 4 m/s 751 mmHg 41%
15:00 +14°C° 0 mm 4 m/s 751 mmHg 44%
16:00 +15°C° 0 mm 4 m/s 751 mmHg 46%
17:00 +15°C° 0 mm 4 m/s 751 mmHg 49%
18:00 +13°C° 0 mm 3 m/s 751 mmHg 57%
19:00 +12°C° 0 mm 3 m/s 751 mmHg 65%
20:00 +10°C° 0 mm 3 m/s 751 mmHg 73%
21:00 +9°C° 0 mm 3 m/s 751 mmHg 74%
22:00 +9°C° 0 mm 3 m/s 751 mmHg 76%
23:00 +7°C° 0 mm 4 m/s 751 mmHg 77%

10 Mai, Luni

Timp Temperatura Precipitaţii Vânt Presiune Umiditate
00:00 +7°C° 0 mm 4 m/s 751 mmHg 78%
01:00 +6°C° 0 mm 4 m/s 751 mmHg 79%
02:00 +6°C° 0 mm 4 m/s 751 mmHg 80%
03:00 +6°C° 0 mm 4 m/s 751 mmHg 80%
04:00 +6°C° 0 mm 4 m/s 751 mmHg 80%
05:00 +5°C° 0 mm 4 m/s 751 mmHg 81%
06:00 +7°C° 0 mm 4 m/s 751 mmHg 75%
07:00 +9°C° 0 mm 5 m/s 751 mmHg 69%
08:00 +11°C° 0 mm 6 m/s 751 mmHg 63%
09:00 +14°C° 0 mm 6 m/s 751 mmHg 59%
10:00 +15°C° 0 mm 7 m/s 751 mmHg 55%
11:00 +17°C° 0 mm 7 m/s 751 mmHg 52%
12:00 +18°C° 0 mm 7 m/s 751 mmHg 50%
13:00 +20°C° 0 mm 7 m/s 751 mmHg 49%
14:00 +20°C° 0 mm 7 m/s 751 mmHg 48%
15:00 +20°C° 0 mm 7 m/s 750 mmHg 51%
16:00 +20°C° 0 mm 7 m/s 750 mmHg 54%
17:00 +20°C° 0 mm 6 m/s 750 mmHg 57%
18:00 +17°C° 0 mm 6 m/s 750 mmHg 62%
19:00 +16°C° 0 mm 5 m/s 750 mmHg 67%
20:00 +14°C° 0 mm 5 m/s 750 mmHg 72%
21:00 +13°C° 0 mm 5 m/s 750 mmHg 73%
22:00 +13°C° 0 mm 5 m/s 750 mmHg 75%
23:00 +12°C° 0 mm 5 m/s 750 mmHg 77%

11 Mai, Marţi

Timp Temperatura Precipitaţii Vânt Presiune Umiditate
00:00 +10°C° 0 mm 5 m/s 750 mmHg 78%
01:00 +10°C° 0 mm 5 m/s 750 mmHg 79%
02:00 +9°C° 0 mm 5 m/s 749 mmHg 80%
03:00 +9°C° 0 mm 6 m/s 749 mmHg 80%
04:00 +9°C° 0 mm 6 m/s 749 mmHg 79%
05:00 +8°C° 0 mm 6 m/s 749 mmHg 79%
06:00 +10°C° 0 mm 6 m/s 749 mmHg 76%
07:00 +11°C° 0 mm 7 m/s 749 mmHg 72%
08:00 +12°C° 0 mm 7 m/s 749 mmHg 68%
09:00 +15°C° 0 mm 8 m/s 749 mmHg 63%
10:00 +16°C° 0 mm 8 m/s 749 mmHg 58%
11:00 +18°C° 0 mm 8 m/s 749 mmHg 53%
12:00 +18°C° 0 mm 8 m/s 749 mmHg 51%
13:00 +20°C° 0 mm 8 m/s 748 mmHg 50%
14:00 +21°C° 0 mm 8 m/s 748 mmHg 48%
15:00 +21°C° 0 mm 8 m/s 748 mmHg 50%
16:00 +20°C° 0 mm 7 m/s 748 mmHg 51%
17:00 +20°C° 0 mm 7 m/s 748 mmHg 53%
18:00 +19°C° 0 mm 6 m/s 747 mmHg 57%
19:00 +16°C° 0 mm 6 m/s 747 mmHg 61%
20:00 +15°C° 0 mm 5 m/s 747 mmHg 66%
21:00 +14°C° 0 mm 5 m/s 747 mmHg 69%
22:00 +14°C° 0 mm 5 m/s 747 mmHg 72%
23:00 +14°C° 0 mm 5 m/s 747 mmHg 75%
Arată mai mult

Formular de consimțământ

Meteoprog și furnizorii noștri de servicii pot stoca și accesa date personale, precum cookies, identificatori de dispozitiv sau alte tehnologii similare pe dispozitivul dumneavoastră și procesa astfel de date pentru a personaliza conținutul și reclamele, dar și pentru a oferi caracteristici de social media și pentru a analiza traficul.

  • Stocarea și/sau accesarea informațiilor pe dispozitivul dumneavoastră

    Cookies, identificatori de dispozitiv sau alte informații pot fi stocate sau accesate pe dispozitiv în scopurile indicate mai sus.

  • Reclame și conținut personalizat, evaluarea reclamelor și a conținutului, informații despre audiențe și dezvoltarea produselor

    Reclamele și conținutul pot fi personalizate pe baza unui profil. Pot fi adăugate date suplimentare pentru a personaliza mai bine reclamele și conținutul. Performanța reclamelor și conținutului poate fi măsurată. Pot fi obținute informații despre utilizatorii care au văzut reclamele și conținutul. Aceste date pot fi utilizate pentru a dezvolta sau îmbunătăți experiența utilizatorilor, sistemele și software-ul.

Dând clic pe ‘Sunt de acord’, permiteți utilizarea cookie-urilor menționate, a identificatorilor de dispozitiv, balizelor web sau altor tehnologii similare. Setările pot fi modificate din browser-ul dispozitivului dumneavoastră.

În anumite scopuri, interesele legitime pot prima asupra consimțământului. Puteți citi mai multe informații în acest sens în Politica privind Confidențialitatea Datelor și Cookie.